Location: Follega
(52.8850°N, 5.7362°E)
Time: 06:43:59
(UTC+00:00)

ERS-1 Rocket - Pass Details

Date: 10 October 2020
Orbit: 753 x 757 km, 98.5° (Epoch: 30 October)

Event Time Altitude Azimuth Distance (km) Brightness Sun altitude
Exits shadow 19:38:18 19° 31° (NNE) 1,740 4.7 -25.4°
Drops below altitude 10° 19:40:38 10° 7° (N) 2,301 5.7 -25.7°
Sets 19:43:22 0° 352° (N) 3,231 6.7 -26.1°
